CAPE
0 0 0 0 0 0 0 0 0 0 0 0 0 0 0 0 0 0 0 0 0 0 0 0 0 0 0 0 0 78 0 0 0 278 488 662 763 818 711 689 773 723 815 804
0 0 0 0 0 0 0 0 0 0 0 0 0 0 0 0 0 0 0 0 0 0 0 0 0 0 0 0 0 14 0 0 110 398 682 795 955 739 711 677 963 1017 969 925
0 0 0 0 0 0 0 0 0 0 0 0 0 0 0 0 0 0 0 0 0 0 0 0 0 0 0 0 0 0 0 0 294 710 858 945 798 387 639 920 910 855 897 988
0 0 0 0 0 0 0 0 0 0 0 0 0 0 0 0 0 0 0 0 0 0 0 0 0 0 0 0 0 0 0 0 226 918 971 1101 1225 870 918 731 883 1089 1073 996
0 0 2 6 5 0 0 0 0 0 0 0 0 0 0 0 0 0 0 0 0 0 0 0 0 0 0 0 0 0 0 171 352 835 1075 1315 1280 1257 1267 1200 1038 1098 1285 1196
2 1 0 0 0 10 0 0 0 0 0 0 0 0 0 0 0 0 0 0 0 0 0 0 0 0 0 0 59 214 382 706 696 841 1103 1353 1337 1109 1224 1366 1382 1313 1224 1117
13 22 5 1 0 0 1 18 0 0 0 0 0 0 0 0 0 0 0 0 0 0 0 0 0 0 0 145 527 309 798 917 974 1054 1075 1157 1257 1324 1468 1463 1315 1143 928 941
88 33 0 0 3 1 0 1 0 0 0 0 0 0 0 0 0 0 0 0 0 0 0 0 0 0 219 663 576 716 1181 1072 1020 952 945 1062 1135 1262 1317 1202 1137 851 800 913
53 42 32 135 154 28 20 0 0 0 0 0 0 0 0 0 0 0 0 0 0 0 0 0 2 430 774 812 1176 1402 1283 1110 1157 1186 1257 1257 1249 1201 1160 988 900 725 804 762
25 38 40 0 76 84 15 23 0 3 0 0 0 0 0 0 0 0 0 0 0 113 0 49 275 649 1419 1483 1355 1309 1337 1373 1352 1309 1255 1246 1211 1106 698 685 670 723 713 584
53 3 11 20 13 3 5 6 35 13 0 0 0 0 0 0 0 0 0 0 27 228 68 249 893 1510 1416 1303 1423 1491 1467 1385 1316 1257 1191 1044 601 499 521 582 596 604 565 481
88 136 34 4 0 0 0 0 23 22 0 0 0 0 0 0 0 0 0 0 0 182 482 972 1250 1342 1378 1357 1533 1482 1360 1195 1036 734 490 475 450 467 520 477 459 381 341 116
107 52 30 1 110 7 0 0 6 9 0 0 0 0 0 0 0 0 0 0 0 240 935 1188 1181 1225 1269 1241 1319 1182 1050 777 368 350 371 379 366 441 473 362 271 202 138 197
98 64 15 45 6 0 1 0 0 0 0 0 0 0 0 0 0 0 0 0 0 318 1019 1497 1344 1131 1187 1243 1106 864 561 325 273 251 235 276 291 339 355 285 163 178 180 245
52 31 34 10 4 1 0 0 0 0 0 0 0 0 0 0 0 0 0 0 0 65 587 1458 1413 1012 1263 1195 964 614 318 251 189 57 133 209 212 271 251 180 96 83 164 83
47 65 22 14 0 0 0 0 0 0 0 0 0 0 0 0 0 0 0 0 0 0 472 1251 1281 963 976 905 642 401 266 196 108 75 123 149 154 215 285 234 82 27 67 467
67 104 41 9 1 0 0 0 0 0 0 0 0 0 0 0 0 0 0 0 0 1 704 1040 964 1027 884 653 503 396 211 104 142 149 167 178 188 193 151 25 41 88 311 376
67 42 23 0 0 0 0 8 3 28 49 43 0 0 0 0 0 0 0 17 0 244 757 1155 1138 1040 803 617 494 392 206 124 123 218 226 205 237 153 69 36 62 265 349 306
0 0 0 0 0 0 0 10 16 25 5 11 0 0 0 0 0 0 3 10 235 569 867 1112 1062 898 731 568 450 284 107 186 248 423 449 332 244 125 73 75 290 546 543 45
0 0 0 0 0 0 0 0 0 6 0 10 0 0 0 0 44 12 82 412 514 858 935 1038 934 805 718 584 408 183 109 167 303 525 480 308 122 100 55 131 224 450 606 413
0 0 0 0 0 0 0 0 0 0 35 28 29 32 24 1 0 3 72 381 654 878 892 971 851 836 707 378 288 242 203 249 332 542 504 219 132 111 161 166 218 396 412 240
0 0 0 0 0 0 0 0 0 0 0 50 13 42 6 4 0 0 19 377 492 500 730 875 933 865 652 323 232 218 337 324 307 593 433 208 169 12 113 180 255 377 489 397
0 0 0 0 0 0 0 0 0 0 0 18 19 29 0 7 0 6 87 276 350 485 568 757 894 771 439 298 279 222 366 285 375 651 370 321 138 130 273 368 489 481 445 308
0 0 0 0 0 0 0 0 2 23 25 27 24 26 1 6 44 83 84 96 222 348 509 574 578 579 394 282 242 295 285 227 418 650 359 376 288 266 335 323 443 507 439 225
0 0 0 0 0 0 0 0 8 16 14 20 29 13 0 99 101 135 45 19 92 187 401 570 452 581 548 308 203 278 123 226 482 626 219 485 342 386 457 355 288 500 420 256
12 0 0 0 0 0 0 1 26 6 13 18 12 9 58 121 174 168 58 21 79 141 239 394 486 454 505 311 235 161 95 245 542 620 413 505 446 462 367 184 39 36 37 9
CIN
-0 -0 -0 -0 -0 -0 -0 -0 -0 -0 -0 -0 -0 -0 -0 -0 -0 -0 -0 -0 -0 -0 -0 -0 -0 -0 -0 -0 -0 -424 -0 -0 -0 -627 -578 -575 -555 -536 -539 -526 -490 -436 -369 -337
-0 -0 -0 -0 -0 -0 -0 -0 -0 -0 -0 -0 -0 -0 -0 -0 -0 -0 -0 -0 -0 -0 -0 -0 -0 -0 -0 -0 -0 -324 -0 -0 -663 -572 -566 -540 -489 -542 -507 -502 -394 -336 -317 -299
-0 -0 -0 -0 -0 -0 -0 -0 -0 -0 -0 -0 -0 -0 -0 -0 -0 -0 -0 -0 -0 -0 -0 -0 -0 -0 -0 -0 -0 -0 -0 -0 -617 -565 -557 -526 -525 -629 -498 -400 -374 -340 -245 -237
-0 -0 -0 -0 -0 -0 -0 -0 -0 -0 -0 -0 -0 -0 -0 -0 -0 -0 -0 -0 -0 -0 -0 -0 -0 -0 -0 -0 -0 -0 -0 -0 -633 -555 -510 -495 -361 -455 -412 -416 -327 -225 -205 -155
-0 -0 -4 -1 -4 -0 -0 -0 -0 -0 -0 -0 -0 -0 -0 -0 -0 -0 -0 -0 -0 -0 -0 -0 -0 -0 -0 -0 -0 -0 -12 -647 -654 -547 -471 -410 -352 -330 -299 -262 -264 -130 -126 -60
-22 -3 -0 -0 -0 -3 -0 -0 -0 -0 -0 -0 -0 -0 -0 -0 -0 -0 -0 -0 -0 -0 -0 -0 -0 -0 -0 -0 -436 -565 -557 -539 -556 -512 -455 -360 -329 -347 -272 -200 -148 -112 -77 -73
-54 -43 -37 -15 -1 -0 -1 -1 -0 -0 -0 -0 -0 -0 -0 -0 -0 -0 -0 -0 -0 -0 -0 -0 -0 -0 -0 -467 -451 -620 -478 -459 -452 -437 -406 -341 -309 -278 -187 -133 -100 -83 -116 -52
-2 -4 -0 -0 -4 -7 -0 -0 -0 -0 -0 -0 -0 -0 -0 -0 -0 -0 -0 -0 -0 -0 -0 -0 -0 -0 -447 -417 -496 -459 -374 -400 -402 -393 -269 -204 -189 -211 -138 -93 -123 -102 -59 -32
-6 -3 -10 -8 -11 -4 -1 -0 -0 -0 -0 -0 -0 -0 -0 -0 -0 -0 -0 -0 -0 -0 -0 -0 -60 -429 -377 -403 -341 -293 -313 -326 -239 -210 -187 -156 -139 -109 -83 -78 -84 -74 -40 -36
-9 -3 -13 -30 -10 -10 -2 -3 -0 -0 -0 -0 -0 -0 -0 -0 -0 -0 -0 -0 -0 -283 -0 -624 -498 -392 -257 -254 -266 -255 -214 -185 -166 -167 -157 -139 -101 -72 -145 -118 -65 -39 -40 -34
-9 -3 -10 -15 -14 -4 -6 -7 -0 -8 -0 -0 -0 -0 -0 -0 -0 -0 -0 -0 -195 -336 -540 -454 -297 -216 -235 -228 -202 -173 -149 -147 -150 -145 -125 -112 -175 -175 -119 -59 -40 -35 -31 -22
-10 -0 -4 -8 -0 -0 -0 -0 -2 -0 -0 -0 -0 -0 -0 -0 -0 -0 -0 -0 -0 -343 -286 -216 -206 -224 -210 -198 -158 -141 -132 -144 -143 -169 -226 -191 -153 -94 -58 -46 -36 -31 -23 -38
-2 -0 -5 -3 -11 -23 -0 -4 -48 -33 -0 -0 -0 -0 -0 -0 -0 -0 -0 -0 -0 -273 -149 -157 -177 -180 -185 -185 -153 -147 -156 -166 -233 -213 -178 -139 -95 -53 -39 -42 -47 -33 -30 -11
-2 -1 -9 -6 -18 -0 -0 -0 -0 -0 -0 -0 -0 -0 -0 -0 -0 -0 -0 -0 -0 -181 -94 -72 -110 -145 -132 -146 -158 -179 -210 -230 -203 -179 -149 -106 -70 -49 -36 -39 -54 -18 -8 -9
-0 -7 -16 -28 -29 -10 -2 -0 -0 -0 -0 -0 -0 -0 -0 -0 -0 -0 -0 -0 -0 -235 -156 -42 -77 -139 -92 -109 -154 -199 -244 -203 -179 -215 -130 -76 -74 -42 -37 -47 -49 -27 -11 -15
-0 -0 -0 -0 -0 -0 -0 -0 -0 -0 -0 -0 -0 -0 -0 -0 -0 -0 -0 -0 -0 -0 -183 -48 -60 -110 -116 -116 -150 -210 -201 -164 -153 -156 -105 -89 -55 -41 -17 -15 -33 -56 -22 -10
-0 -0 -0 -0 -0 -0 -0 -0 -0 -0 -0 -0 -0 -0 -0 -0 -0 -0 -0 -0 -0 -73 -105 -62 -69 -68 -102 -139 -140 -118 -142 -153 -93 -67 -57 -38 -38 -23 -31 -88 -33 -10 -13 -38
-0 -0 -0 -0 -0 -0 -0 -112 -60 -15 -1 -0 -0 -0 -0 -0 -0 -0 -0 -90 -0 -166 -99 -60 -41 -60 -91 -117 -95 -66 -75 -89 -66 -16 -10 -23 -15 -24 -56 -59 -25 -13 -39 -44
-0 -0 -0 -0 -0 -0 -0 -14 -0 -4 -3 -1 -0 -0 -0 -0 -0 -0 -56 -79 -168 -115 -80 -48 -47 -65 -84 -95 -70 -52 -73 -33 -8 -3 -5 -9 -13 -29 -43 -31 -7 -8 -27 -71
-0 -0 -0 -0 -0 -0 -0 -0 -0 -1 -0 -30 -0 -0 -0 -0 -2 -33 -31 -85 -93 -57 -75 -71 -92 -87 -73 -58 -52 -58 -59 -24 -7 -5 -7 -11 -45 -41 -49 -15 -11 -18 -14 -20
-0 -0 -0 -0 -0 -0 -22 -0 -0 -0 -0 -0 -0 -0 -0 -10 -0 -161 -126 -52 -54 -60 -92 -84 -101 -81 -57 -96 -55 -27 -23 -10 -9 -8 -11 -16 -30 -39 -24 -22 -24 -20 -18 -17
-0 -0 -0 -0 -0 -0 -0 -0 -0 -0 -0 -0 -0 -0 -1 -4 -0 -0 -115 -26 -50 -128 -119 -104 -90 -67 -61 -79 -57 -22 -10 -8 -18 -16 -16 -13 -14 -93 -50 -33 -21 -20 -10 -3
-0 -0 -0 -0 -0 -0 -0 -0 -0 -0 -0 -0 -6 -0 -0 -0 -0 -109 -102 -71 -115 -80 -84 -120 -80 -75 -97 -72 -26 -11 -10 -27 -18 -18 -41 -20 -23 -27 -17 -14 -15 -10 -4 -0
-0 -0 -0 -0 -0 -0 -0 -0 -0 -0 -0 -0 -0 -1 -1 -20 -88 -89 -73 -193 -160 -90 -60 -160 -148 -90 -98 -75 -40 -12 -28 -34 -18 -26 -82 -31 -23 -21 -15 -8 -6 -5 -3 -3
-0 -0 -0 -0 -0 -0 -0 -0 -5 -1 -0 -0 -0 -3 -0 -25 -87 -69 -108 -42 -77 -47 -37 -131 -53 -67 -64 -68 -60 -25 -73 -46 -20 -28 -113 -26 -22 -16 -14 -11 -13 -7 -1 -0
-0 -0 -0 -0 -0 -0 -0 -0 -2 -0 -0 -0 -0 -0 -5 -25 -49 -64 -99 -66 -164 -171 -149 -49 -35 -58 -86 -22 -64 -61 -84 -49 -23 -26 -50 -22 -16 -18 -13 -29 -32 -44 -38 -23
Wind_Speed
nan nan nan nan nan nan nan nan nan nan nan nan nan nan nan nan nan nan nan nan nan nan nan nan nan nan nan nan nan nan nan nan nan 46 43 39 42 45 44 41 39 40 37 36
nan nan nan nan nan nan nan nan nan nan nan nan nan nan nan nan nan nan nan nan nan nan nan nan nan nan nan nan nan nan nan nan 45 41 41 44 47 46 44 40 36 35 33 34
nan nan nan nan nan nan nan nan nan nan nan nan nan nan nan nan nan nan nan nan nan nan nan nan nan nan nan nan nan nan nan nan 41 40 45 47 50 43 39 33 30 30 31 29
nan nan nan nan nan nan nan nan nan nan nan nan nan nan nan nan nan nan nan nan nan nan nan nan nan nan nan nan nan nan nan nan 35 42 41 42 39 35 28 28 27 26 29 33
nan nan nan nan nan nan nan nan nan nan nan nan nan nan nan nan nan nan nan nan nan nan nan nan nan nan nan nan nan nan nan 33 36 38 38 37 28 29 29 28 30 31 33 35
nan nan nan nan nan nan nan nan nan nan nan nan nan nan nan nan nan nan nan nan nan nan nan nan nan nan nan nan nan 27 29 32 37 37 37 27 28 31 31 31 31 34 36 36
nan nan nan nan nan nan nan nan nan nan nan nan nan nan nan nan nan nan nan nan nan nan nan nan nan nan nan 20 23 27 31 36 37 37 29 26 28 32 34 33 33 37 35 33
nan nan nan nan nan nan nan nan nan nan nan nan nan nan nan nan nan nan nan nan nan nan nan nan nan nan 17 21 25 28 33 37 36 30 26 27 32 30 29 31 32 30 30 28
nan nan nan 7 16 nan nan nan nan nan nan nan nan nan nan nan nan nan nan nan nan nan nan nan nan 20 23 23 25 29 34 36 29 25 26 30 30 29 29 31 29 27 29 29
nan nan nan nan nan nan nan nan nan nan nan nan nan nan nan nan nan nan nan nan nan 35 nan nan 21 22 21 23 26 29 29 26 25 28 29 29 28 28 29 26 28 29 32 31
nan nan nan nan nan nan nan nan nan nan nan nan nan nan nan nan nan nan nan nan nan 37 nan 24 19 20 22 21 23 24 25 25 27 29 28 28 27 28 27 26 27 30 27 22
nan 7 nan nan nan nan nan nan nan nan nan nan nan nan nan nan nan nan nan nan nan 34 28 19 15 18 17 22 23 25 24 23 25 26 26 27 26 27 28 28 28 25 24 21
12 nan nan nan 10 nan nan nan nan nan nan nan nan nan nan nan nan nan nan nan nan 34 26 15 13 13 16 21 22 22 22 23 24 25 24 22 25 25 25 26 26 22 23 20
nan nan nan nan nan nan nan nan nan nan nan nan nan nan nan nan nan nan nan nan nan 32 18 14 14 12 13 17 19 20 21 22 22 21 20 22 22 21 22 23 22 22 21 18
nan nan nan nan nan nan nan nan nan nan nan nan nan nan nan nan nan nan nan nan nan nan 17 15 15 13 11 11 15 18 19 19 17 nan 19 20 20 22 24 24 nan nan 17 nan
nan nan nan nan nan nan nan nan nan nan nan nan nan nan nan nan nan nan nan nan nan nan 19 16 15 10 9 10 10 14 15 14 14 nan 17 19 19 17 17 17 nan nan nan 12
nan 15 nan nan nan nan nan nan nan nan nan nan nan nan nan nan nan nan nan nan nan nan 23 16 15 9 8 7 9 10 10 11 12 13 15 15 13 13 14 nan nan nan 10 9
nan nan nan nan nan nan nan nan nan nan nan nan nan nan nan nan nan nan nan nan nan 37 23 17 13 8 6 8 8 7 8 9 10 11 13 11 11 13 nan nan nan 8 7 8
nan nan nan nan nan nan nan nan nan nan nan nan nan nan nan nan nan nan nan nan 40 33 24 17 13 11 9 6 7 6 6 7 7 9 9 9 12 14 nan nan 11 10 8 nan
nan nan nan nan nan nan nan nan nan nan nan nan nan nan nan nan nan nan nan 43 38 28 22 16 15 13 8 6 5 6 4 4 5 7 9 11 12 13 nan 10 10 8 8 7
nan nan nan nan nan nan nan nan nan nan nan nan nan nan nan nan nan nan nan 45 35 29 19 18 16 15 7 5 5 3 3 2 4 7 10 11 11 11 11 9 6 5 8 7
nan nan nan nan nan nan nan nan nan nan nan nan nan nan nan nan nan nan nan 40 38 28 19 16 13 14 7 4 3 2 1 2 5 6 8 9 8 nan 5 5 5 4 6 8
nan nan nan nan nan nan nan nan nan nan nan nan nan nan nan nan nan nan nan 35 34 30 21 14 14 13 6 3 2 1 1 3 5 5 4 5 7 7 4 4 6 7 7 8
nan nan nan nan nan nan nan nan nan nan nan nan nan nan nan nan nan nan nan nan 33 30 20 16 15 10 7 3 3 4 2 3 4 4 1 5 10 11 7 2 3 4 6 11
nan nan nan nan nan nan nan nan nan nan nan nan nan nan nan nan 70 62 nan nan nan 30 31 21 18 9 6 2 4 4 1 4 2 3 1 6 8 10 8 4 5 6 9 15
nan nan nan nan nan nan nan nan nan nan nan nan nan nan nan 62 54 53 nan nan nan 39 32 24 13 13 7 4 3 4 nan 3 2 1 3 7 9 10 9 7 nan nan nan nan
Wind_Direction
nan nan nan nan nan nan nan nan nan nan nan nan nan nan nan nan nan nan nan nan nan nan nan nan nan nan nan nan nan nan nan nan nan 282 288 293 293 295 297 296 299 305 307 306
nan nan nan nan nan nan nan nan nan nan nan nan nan nan nan nan nan nan nan nan nan nan nan nan nan nan nan nan nan nan nan nan 281 285 286 284 292 293 293 292 301 304 303 297
nan nan nan nan nan nan nan nan nan nan nan nan nan nan nan nan nan nan nan nan nan nan nan nan nan nan nan nan nan nan nan nan 278 285 284 285 286 285 290 289 290 297 303 304
nan nan nan nan nan nan nan nan nan nan nan nan nan nan nan nan nan nan nan nan nan nan nan nan nan nan nan nan nan nan nan nan 280 289 292 292 289 292 284 287 294 297 307 305
nan nan nan nan nan nan nan nan nan nan nan nan nan nan nan nan nan nan nan nan nan nan nan nan nan nan nan nan nan nan nan 273 282 289 289 292 294 281 284 290 298 299 298 300
nan nan nan nan nan nan nan nan nan nan nan nan nan nan nan nan nan nan nan nan nan nan nan nan nan nan nan nan nan 259 273 277 281 289 290 295 291 285 285 291 293 297 295 295
nan nan nan nan nan nan nan nan nan nan nan nan nan nan nan nan nan nan nan nan nan nan nan nan nan nan nan 246 256 265 275 279 283 283 286 289 287 286 290 296 294 295 292 292
nan nan nan nan nan nan nan nan nan nan nan nan nan nan nan nan nan nan nan nan nan nan nan nan nan nan 246 256 266 273 277 277 275 279 281 279 282 281 287 291 292 292 291 293
nan nan nan 282 222 nan nan nan nan nan nan nan nan nan nan nan nan nan nan nan nan nan nan nan nan 247 251 259 268 275 273 270 273 274 272 274 280 285 285 288 290 285 287 288
nan nan nan nan nan nan nan nan nan nan nan nan nan nan nan nan nan nan nan nan nan 191 nan nan 231 248 257 261 265 266 272 270 270 268 269 275 279 282 283 283 286 289 287 287
nan nan nan nan nan nan nan nan nan nan nan nan nan nan nan nan nan nan nan nan nan 186 nan 223 235 251 255 262 263 267 264 265 267 271 275 281 279 279 279 284 286 286 287 286
nan 232 nan nan nan nan nan nan nan nan nan nan nan nan nan nan nan nan nan nan nan 192 197 208 230 246 262 262 265 264 265 267 269 275 281 279 277 280 282 284 283 289 291 286
263 nan nan nan 274 nan nan nan nan nan nan nan nan nan nan nan nan nan nan nan nan 189 186 194 216 236 257 264 264 263 265 268 277 282 276 275 281 290 290 285 284 285 288 284
nan nan nan nan nan nan nan nan nan nan nan nan nan nan nan nan nan nan nan nan nan 179 186 200 209 231 251 261 262 264 270 277 282 278 276 281 287 289 289 288 287 285 284 281
nan nan nan nan nan nan nan nan nan nan nan nan nan nan nan nan nan nan nan nan nan nan 193 197 197 216 232 255 273 277 278 284 280 nan 283 289 291 289 286 284 nan nan 273 nan
nan nan nan nan nan nan nan nan nan nan nan nan nan nan nan nan nan nan nan nan nan nan 183 188 191 221 244 259 265 282 284 280 274 nan 287 299 297 292 297 297 nan nan nan 261
nan 268 nan nan nan nan nan nan nan nan nan nan nan nan nan nan nan nan nan nan nan nan 178 188 189 196 233 270 281 280 271 276 274 283 295 302 299 304 306 nan nan nan 261 263
nan nan nan nan nan nan nan nan nan nan nan nan nan nan nan nan nan nan nan nan nan 170 178 183 185 207 245 280 281 258 278 272 283 292 300 299 308 317 nan nan nan 289 263 261
nan nan nan nan nan nan nan nan nan nan nan nan nan nan nan nan nan nan nan nan 163 175 181 187 202 224 241 278 265 282 279 280 294 297 299 303 323 314 nan nan 295 272 269 nan
nan nan nan nan nan nan nan nan nan nan nan nan nan nan nan nan nan nan nan 173 176 190 192 201 220 234 241 254 268 289 278 292 308 288 296 310 314 313 nan 295 293 261 244 245
nan nan nan nan nan nan nan nan nan nan nan nan nan nan nan nan nan nan nan 176 186 201 202 219 226 234 239 249 282 296 276 332 281 275 297 310 311 313 299 284 285 284 255 245
nan nan nan nan nan nan nan nan nan nan nan nan nan nan nan nan nan nan nan 180 193 195 216 230 227 240 227 252 272 262 329 292 280 278 306 317 335 nan 312 291 252 300 255 222
nan nan nan nan nan nan nan nan nan nan nan nan nan nan nan nan nan nan nan 182 189 194 208 211 229 242 221 244 189 173 189 270 275 276 316 349 5 5 343 312 276 252 226 185
nan nan nan nan nan nan nan nan nan nan nan nan nan nan nan nan nan nan nan nan 190 183 199 201 225 235 224 200 158 113 233 283 291 278 278 358 16 15 22 346 249 236 203 174
nan nan nan nan nan nan nan nan nan nan nan nan nan nan nan nan 186 184 nan nan nan 192 210 194 203 201 203 172 138 137 150 291 289 281 148 24 27 29 21 46 151 157 171 160
nan nan nan nan nan nan nan nan nan nan nan nan nan nan nan 187 176 183 nan nan nan 211 211 191 170 198 186 133 143 136 nan 300 306 266 112 75 44 42 45 49 nan nan nan nan